alt.binaries.pictures.erotic.young Group List
Num Subject Author Time
78 This sweety comes from heaven!!! 001.jpg 214581 27-files 6MB "This.nzb" irosen 2016/09/05 04:34
77 First Time Anal! movies 0.jpg 114306 104-files 17MB "First.nzb" merrow 2016/09/04 23:06
76 Posing for charm... 1.jpg 162561 306-files 72MB "Posing.nzb" gscxray 2016/09/03 12:54
75 I love to cheat on my husband!!! 001.jpg 183701 35-files 16MB "love.nzb" merrow 2016/09/02 06:04
74 Extreme mardi gras movies 2.jpg 158383 212-files 39MB "Extreme.nzb" gellebn 2016/09/01 19:05
73 More exclusive models - '1' of '73' 73-files 21MB "More.nzb" sefatk 2016/09/01 06:59
72 Feel the youngest.. 0.jpg 111694 44-files 7MB "Feel.nzb" twood 2016/08/31 06:26
71 Pretty nice little ladies ;))) 001.jpg 80219 21-files 4MB "Pretty.nzb" t.e.dalton 2016/08/31 02:40
70 There is also a great cumshot of the gooey stuff dripping from her snatch. - '1' of '65' 65-files 16MB "There.nzb" policecars4u 2016/08/30 09:47
69 See Blondie play with Herself 0.jpg 154644 7-files 2MB "See.nzb" ofi8ab 2016/08/23 02:38
68 Very beautiful teens 1.jpg 146711 4-files 821KB "Very.nzb" chaosdefined 2016/08/23 01:30
67 Heres free young girl 1.jpg 130082 2-files 370KB "Heres.nzb" aacevedopr 2016/08/22 13:39
66 Little tiny sweeties 1.jpg 207880 6-files 2MB "Little.nzb" aacevedopr 2016/08/22 14:13
65 See cutie play with Herself 2.jpg 191815 251-files 45MB "See.nzb" twood 2016/08/20 13:26
64 you like to look it? So look!:) 002.jpg 102904 60-files 9MB "you.nzb" t.e.dalton 2016/08/18 23:52
63 find more at... 0.jpg 114306 104-files 17MB "find.nzb" ofi8ab 2016/08/17 04:50
62 You Like to Look it? So Look!:) 001.jpg 160025 148-files 29MB "You.nzb" Puptrck150 2016/08/15 20:27
61 Unique serie - just downloaded 12.jpg 199557 306-files 72MB "Unique.nzb" twood 2016/08/15 03:16
60 my cool collection supervery young girls 1.jpg 145922 212-files 39MB "cool.nzb" k2mister 2016/08/14 10:30
59 Little tiny pussies banged!!! 001.jpg 130771 42-files 13MB "Little.nzb" savage_Ira 2016/08/13 23:03
58 C.mon, tiny, light my fire!!! 002.jpg 181818 84-files 21MB "C.mon.nzb" Puptrck150 2016/08/13 05:30
57 She screams and moans as she's getting slam fucked doggie style - '5' of '100' 100-files 26MB "She.nzb" jbarlow58 2016/08/13 00:54
56 Pretty nice little ladies 1.jpg 105822 44-files 7MB "Pretty.nzb" gscxray 2016/08/12 16:25
55 Young tight girl... 0.jpg 154644 65-files 13MB "Young.nzb" k2mister 2016/08/12 01:15
54 unless she is not fine? - '1' of '65' 65-files 18MB "unless.nzb" k2mister 2016/08/11 04:31
53 Tiny Sweet nice girls! 3.jpg 134396 147-files 27MB "Tiny.nzb" Kla.Win 2016/08/10 16:31
52 Very nice___Sissie 1.jpg 144843 148-files 28MB "Very.nzb" sefatk 2016/08/10 00:53
51 Tiny Sweet teens archive... - '29' of '100' 100-files 27MB "Tiny.nzb" bert.dewey 2016/08/09 04:03
50 My sister & her ... - '25' of '84' 84-files 21MB "sister.nzb" ofi8ab 2016/08/08 03:03
49 Why are they such Young and attractive? - '10' of '74' 74-files 23MB "Why.nzb" match.2 2016/08/07 23:41
48 sexy young pussy__Cindy 1.jpg 120969 390-files 64MB "sexy.nzb" FreezerNut 2016/08/07 23:19
47 Tiny Sweet teens archive... - '5' of '112' 112-files 21MB "Tiny.nzb" Puptrck150 2016/08/06 08:58
46 Want to see more? 1.jpg 210959 364-files 88MB "Want.nzb" lefortpaul 2016/07/17 14:06
45 The Best teens 1.jpg 146082 212-files 39MB "The.nzb" ct_web 2016/07/16 14:07
44 Why are they such Young and attractive? - '1' of '66' 4-files 1MB "Why.nzb" bert.dewey 2016/07/14 23:07
43 Girls get crazy 1.jpg 94769 351-files 68MB "Girls.nzb" roquedan 2016/07/12 14:10
42 See cutie play with Herself 1.jpg 102930 373-files 69MB "See.nzb" jbarlow58 2016/07/10 04:17
41 The cutie Little Teen in the... 0.jpg 98793 156-files 29MB "The.nzb" darkluparim 2016/07/09 01:48
40 >>> Fantasy Fest Pictures 001.jpg 130370 37-files 6MB "Fantasy.nzb" savage_Ira 2016/07/07 18:32
39 Schoolgirls___Candy 0.jpg 119217 163-files 28MB "Schoolgirls_.nzb" josebatalla 2016/07/07 04:50
38 want harder fuck pics&video? - '34' of '80' 80-files 22MB "want.nzb" seven779 2016/07/06 18:15
37 Her virginity is still whole?... And for a long time? 0.jpg 184437 196-files 35MB "Her.nzb" bert.dewey 2016/07/05 12:11
36 sexy little nymph - '27' of '80' 80-files 25MB "sexy.nzb" gscxray 2016/07/05 01:29
35 tit sex with hot amateur girl - '2' of '78' 78-files 11MB "tit.nzb" t.e.dalton 2016/07/04 20:34
34 Found a Hot Spot 0.jpg 194576 104-files 24MB "Found.nzb" dalad 2016/07/04 17:37
33 Little Cathy so temptin... 0.jpg 179231 352-files 79MB "Little.nzb" dazcaff 2016/07/01 23:36
32 Sweet Fest Pictures - '3' of '80' 80-files 25MB "Sweet.nzb" ghunt8153 2016/07/01 23:03
31 Total Ass Destruction 0.jpg 166948 61-files 12MB "Total.nzb" lemessag 2016/06/30 11:49
30 she's is the hottest teen around billie 001.jpg 180113 29-files 6MB "she.nzb" wpickel 2016/06/30 10:32
29 Tiny Sweet hot amateur girl 0.jpg 138175 224-files 44MB "Tiny.nzb" acyalum87 2016/06/28 21:43
28 tit sex with hot amateur girl - '5' of '21' 21-files 5MB "tit.nzb" irosen 2016/06/27 18:59
27 Lilly sets 0.jpg 89304 231-files 38MB "Lilly.nzb" lemessag 2016/06/24 23:04
26 Young erotic Models 002.jpg 167908 21-files 5MB "Young.nzb" lemessag 2016/06/23 06:11
25 Stepanka - I love her little tits and tight pussy ; step_littletits-fuck1.mp4 18-files 83MB "step_littletits-fuck1.mp4.n .. grimassh 2016/06/23 01:46
24 The only Real Teen Orgy 001.jpg 110973 60-files 9MB "The.nzb" small.anya 2016/06/22 09:52
23 You Like to Look it? So Look - '1' of '112' 112-files 21MB "You.nzb" small.anya 2016/06/20 11:41
22 Young private... 001.jpg 130771 42-files 13MB "Young.nzb" savage.Ira 2016/06/17 20:56
21 Sexy petite teen webcam - ezra001.JPG 25-files 1MB "Sexy.nzb" Frank Childr .. 2016/04/10 05:39
20 b/g romantic fuck with young girlies ; five_babies_for_one_man3.mp4 1-file 46MB "five_babies_for_one_man3.mp4.nzb" osaka 2016/03/31 12:32
19 without shame and conscience 001.jpg 207761 84-files 21MB "without.nzb" savage.Ira 2016/03/01 06:48
18 Selfie & Amateur Homemade Teens Pictures - 6877324.jpg 202-files 23MB "Selfie.nzb" Gilbert Lewe .. 2016/02/28 11:11
17 Small pussies get good fuck ; ehc_bri_smallp.mp4 1-file 33MB "ehc_bri_smallp.mp4.nzb" uroboros 2016/02/26 10:39
16 Small pussies get good fuck ; small_pussy_Cyr.mp4 1-file 26MB "small_pussy_Cyr.mp4.nzb" uroboros 2016/02/26 11:28
15 The cutiest Lil Teen Sluts in the... 001.jpg 185101 142-files 28MB "The.nzb" savage.Ira 2016/02/15 10:07
14 Erotic Teen Sluts - '1' of '21' 21-files 5MB "Erotic.nzb" dalad 2016/02/07 15:28
13 Absolute Adorable Young Girls Giving Handjobs & Blowjobs | Amateur Youngsters - alyssa-hart-ray-edwards-handjob-porn1. .. blowjobpics 2016/02/01 12:39
12 Juicy hardcore fantasies - TD7883.jpg 189-files 46MB "Juicy.nzb" Gawain Bierb .. 2016/01/23 03:21
11 Youth selfies - : 0df4d8cb-4a07-464b-9879-5495d2040ea8.mp4 1-file 22MB "0df4d8cb-4ab-d2040ea8.mp4.nzb" David Zen 2016/01/20 11:29
10 Youth selfies - : 2c189be23-d8a6-4070-a1c1-8a80f40a0bef.mp4 1-file 9MB "2ce23-d8a-a1ca80f40aef.mp4.nzb" David Zen 2016/01/20 11:43
9 Youth selfies - : 1.mp4 1-file 11MB "1.mp4.nzb" David Zen 2016/01/20 11:41
8 Youth selfies - : 1e06bc6d-34c8-4a52-a205-88b013781568.mp4 1-file 19MB "1ec6d-34ca52-ab013781568.mp4.nzb" David Zen 2016/01/20 11:38
7 Youth selfies - : 1c9fa88a-e1b5-48e8-b6a4-fd163b98bfc7.mp4 1-file 13MB "1c9fa88a-ee8-b6a4-fdfc7.mp4.nzb" David Zen 2016/01/20 11:35
6 Youth selfies - : 1c189be23-d8a6-4070-a1c1-8a80f40a0bef.mp4 1-file 12MB "1ce23-d8a-a1ca80f40aef.mp4.nzb" David Zen 2016/01/20 11:33
5 Youth selfies - : 0df4d8cb-4a07-464b-9879-5495d2040ea8.mp4.jpg 6-files 622KB "Youth.nzb" David Zen 2016/01/20 11:33
4 little mouse - : CustomVid.mp4 1-file 49MB "CustomVid.mp4.nzb" Bigrah 2016/01/11 07:21
3 NEW 2015 – 5 - : NEW 2015 - 1.mp4 4-files 191MB "NEW_.mp4.nzb" Bcook 2015/12/15 23:11
2 NEW 2015 – 5 - : NEW 2015 - 1.mp4.jpg 4-files 1MB "NEW.nzb" Bcook 2015/12/15 23:13
First Prev. Next Last Page
of totaling 1 page(s)
  Refresh


  Language: